Location: Borz?cin
(51.1714°N, 19.6030°E)
Time: 21:54:16
(UTC+00:00)

Cosmos 1842 Rocket - Pass Details

Date: 19 May 2025
Orbit: 600 x 626 km, 82.5° (Epoch: 16 June)

Event Time Altitude Azimuth Distance (km) Brightness Sun altitude
Exits shadow 21:25:49 35° 167° (SSE) 982 4.0 -17.1°
Maximum altitude 21:27:31 66° 97° (E) 660 3.5 -17.2°
Drops below altitude 10° 21:31:48 10° 15° (NNE) 1,957 7.0 -17.4°
Sets 21:34:02 0° 13° (NNE) 2,866 8.1 -17.5°
